Temperature
10 9 9 9 8 8 7 7 6 6 5 5 5 4 4 4 3 3 3 2 2 2 1 1 0 -0 -1 -1 -2 -3 -3 -4 -5 -4 -4 -4 -4 -4 -4 -3 -3 -3 -3
9 9 8 8 8 7 7 6 6 5 5 5 4 4 3 3 3 2 2 2 1 1 1 0 -0 -1 -2 -2 -3 -3 -4 -4 -5 -5 -5 -5 -5 -5 -5 -4 -4 -4 -4
9 8 8 8 7 7 6 6 5 5 5 4 4 3 3 3 2 2 1 1 1 1 0 -0 -1 -2 -2 -3 -3 -4 -4 -4 -5 -5 -5 -5 -5 -5 -5 -5 -5 -5 -4
9 8 8 7 7 6 6 5 5 4 4 4 3 3 2 2 2 1 1 1 0 0 -0 -1 -1 -2 -3 -3 -4 -4 -5 -5 -5 -6 -6 -6 -6 -5 -5 -5 -5 -5 -5
8 8 7 7 6 6 5 5 4 4 4 3 3 2 2 2 1 1 0 -0 -0 -1 -1 -1 -2 -3 -3 -4 -5 -5 -5 -5 -6 -6 -6 -6 -6 -6 -6 -6 -6 -6 -6
8 7 7 6 6 5 5 4 4 4 3 3 2 2 2 1 1 0 -0 -1 -1 -1 -2 -2 -2 -3 -4 -4 -5 -5 -6 -6 -6 -6 -6 -6 -6 -6 -6 -6 -6 -6 -6
7 7 6 6 5 5 4 4 4 3 3 2 2 1 1 1 0 -0 -1 -1 -2 -2 -2 -3 -3 -4 -4 -5 -5 -5 -5 -6 -6 -6 -6 -6 -6 -6 -6 -6 -6 -6 -6
7 6 6 5 5 4 4 4 3 2 2 2 1 1 1 0 -0 -1 -1 -2 -2 -2 -3 -3 -4 -4 -5 -5 -6 -6 -6 -6 -6 -6 -6 -6 -6 -6 -6 -6 -6 -6 -6
6 6 5 5 4 4 3 3 2 2 1 1 1 0 0 -0 -1 -1 -2 -2 -2 -3 -3 -4 -5 -5 -5 -6 -6 -6 -6 -6 -6 -6 -6 -6 -6 -6 -6 -6 -6 -7 -7
6 5 5 4 4 3 3 2 2 1 1 0 0 -0 -1 -1 -1 -2 -2 -3 -4 -4 -4 -4 -5 -6 -6 -6 -6 -6 -6 -6 -6 -6 -6 -6 -6 -6 -7 -7 -7 -7 -7
5 5 4 4 3 3 2 2 1 1 0 0 -0 -0 -1 -1 -2 -2 -3 -4 -5 -5 -6 -6 -6 -6 -6 -6 -6 -6 -6 -6 -6 -6 -6 -6 -7 -7 -7 -7 -7 -8 -8
4 4 4 3 2 2 1 1 1 0 -0 -1 -1 -1 -1 -2 -2 -3 -4 -5 -6 -6 -6 -6 -6 -7 -7 -6 -6 -6 -6 -6 -7 -7 -7 -7 -7 -7 -7 -7 -8 -8 -8
4 3 3 2 2 1 1 0 -0 -1 -1 -1 -2 -2 -2 -3 -3 -4 -5 -6 -6 -7 -7 -7 -7 -7 -7 -7 -7 -7 -7 -7 -7 -7 -7 -7 -7 -8 -8 -8 -8 -8 -8
3 3 2 2 1 1 0 -0 -1 -1 -2 -2 -3 -3 -3 -3 -4 -5 -5 -6 -6 -7 -7 -7 -7 -7 -7 -7 -7 -7 -7 -8 -8 -8 -8 -8 -8 -8 -8 -8 -8 -8 -8
2 2 1 1 0 0 -0 -1 -2 -2 -3 -3 -4 -4 -5 -5 -5 -6 -7 -7 -7 -7 -7 -7 -7 -7 -8 -8 -8 -8 -8 -8 -8 -9 -9 -9 -9 -9 -9 -9 -9 -9 -9
2 1 1 0 -0 -1 -1 -2 -2 -3 -3 -4 -4 -5 -5 -6 -6 -7 -7 -7 -7 -7 -7 -8 -8 -8 -9 -9 -9 -9 -9 -9 -9 -9 -9 -9 -9 -9 -9 -9 -9 -9 -9
1 0 -0 -1 -1 -2 -2 -3 -3 -3 -4 -4 -5 -5 -6 -6 -7 -7 -7 -8 -8 -8 -8 -8 -9 -9 -9 -10 -10 -10 -9 -9 -9 -10 -10 -9 -9 -9 -10 -10 -10 -9 -9
0 -0 -1 -2 -2 -3 -3 -4 -4 -5 -5 -5 -5 -6 -7 -7 -7 -8 -8 -8 -8 -9 -9 -9 -10 -10 -10 -10 -10 -10 -10 -10 -10 -10 -10 -10 -10 -10 -10 -10 -10 -10 -10
-1 -1 -2 -2 -3 -3 -4 -5 -5 -6 -6 -7 -7 -7 -8 -8 -9 -9 -9 -9 -9 -9 -10 -10 -10 -11 -11 -11 -11 -11 -11 -10 -10 -10 -10 -10 -10 -10 -10 -10 -10 -10 -10
-2 -2 -3 -3 -4 -4 -5 -6 -6 -7 -7 -8 -8 -8 -9 -9 -9 -9 -9 -10 -10 -10 -10 -11 -11 -11 -11 -11 -11 -11 -11 -11 -11 -10 -10 -10 -10 -10 -10 -10 -10 -10 -10
-2 -3 -3 -4 -4 -5 -6 -6 -7 -8 -8 -9 -9 -9 -9 -10 -10 -10 -10 -10 -10 -11 -11 -11 -11 -11 -11 -12 -12 -12 -11 -11 -11 -11 -10 -10 -10 -10 -10 -10 -10 -10 -10
-3 -4 -4 -5 -5 -6 -7 -7 -8 -8 -9 -9 -9 -9 -10 -10 -10 -10 -11 -11 -11 -11 -11 -12 -12 -12 -12 -12 -12 -12 -12 -12 -11 -11 -11 -11 -11 -10 -10 -10 -10 -10 -10
-4 -5 -5 -6 -6 -7 -8 -8 -8 -9 -9 -10 -10 -10 -10 -11 -11 -11 -11 -11 -11 -12 -12 -12 -12 -12 -12 -12 -12 -12 -12 -12 -12 -11 -11 -11 -11 -11 -11 -11 -10 -10 -10
-5 -5 -6 -7 -7 -8 -8 -9 -9 -10 -10 -10 -11 -11 -11 -11 -11 -12 -12 -12 -12 -12 -12 -12 -13 -13 -12 -13 -12 -12 -12 -12 -12 -12 -11 -11 -11 -11 -11 -11 -11 -11 -11
-6 -7 -7 -8 -8 -9 -9 -9 -10 -10 -10 -11 -11 -11 -12 -12 -12 -12 -12 -12 -12 -12 -12 -13 -13 -13 -13 -13 -12 -12 -12 -12 -12 -12 -12 -11 -11 -11 -11 -11 -11 -11 -11
-7 -8 -8 -8 -9 -9 -10 -10 -10 -11 -11 -11 -12 -12 -12 -12 -12 -12 -12 -13 -13 -13 -13 -13 -13 -13 -13 -13 -13 -12 -12 -12 -12 -12 -12 -12 -11 -11 -11 -11 -11 -11 -11
Wind_Speed
8 7 7 6 6 5 5 4 4 3 3 3 3 3 4 5 4 4 5 6 7 7 7 7 8 8 6 6 6 7 7 8 14 12 6 7 9 12 14 18 20 18 19
8 8 7 6 6 5 4 4 4 3 3 3 3 4 5 5 5 6 7 7 7 8 8 8 9 8 8 7 7 8 8 8 11 16 10 8 9 10 12 13 13 16 16
8 8 7 7 6 6 5 4 4 4 4 4 4 5 6 6 7 7 7 8 8 9 9 9 10 9 10 8 9 9 9 10 10 13 14 9 8 9 10 11 12 11 15
9 9 8 7 7 6 5 4 4 4 4 5 5 6 7 7 7 8 8 9 9 9 10 10 10 10 11 10 10 10 10 11 11 12 13 10 9 8 8 9 10 8 10
10 9 8 6 5 5 4 4 4 4 5 5 6 6 7 7 7 8 8 9 9 10 10 10 11 13 16 14 12 10 9 10 10 11 12 11 9 7 7 7 11 10 9
10 9 7 6 5 5 5 4 4 5 5 5 6 7 8 8 13 17 14 9 9 9 10 10 10 13 17 21 23 22 19 14 11 11 12 13 11 9 9 10 11 12 11
9 7 7 6 5 5 4 4 5 6 5 7 7 7 9 11 17 19 20 13 9 9 10 10 10 11 17 10 17 22 21 23 22 16 15 14 13 11 11 13 12 13 13
8 6 6 5 5 4 4 5 6 5 6 7 8 8 9 12 18 20 21 13 9 10 10 10 11 11 12 14 12 13 13 14 16 13 12 14 13 13 12 13 13 12 10
7 6 6 5 5 5 5 6 6 5 6 7 7 8 9 12 18 21 21 10 9 10 10 10 11 11 19 23 16 13 13 12 17 21 21 20 22 21 16 9 8 9 10
6 6 5 5 5 6 7 6 5 5 7 7 8 8 10 11 17 21 21 9 9 10 9 10 17 18 22 24 15 12 14 12 11 11 13 14 12 13 17 9 6 8 8
4 4 4 4 5 6 5 5 5 6 7 8 10 9 10 13 17 20 21 10 9 10 10 8 9 21 24 25 22 13 17 16 10 8 7 7 7 6 7 6 6 6 8
4 3 3 4 4 4 5 6 6 6 8 9 9 10 8 10 14 17 20 20 19 13 11 8 11 22 24 24 19 18 22 18 6 5 6 6 6 6 6 6 7 7 8
3 3 4 4 4 4 5 6 6 6 7 8 8 10 10 7 10 19 22 23 23 15 11 19 23 25 23 16 18 21 17 8 5 6 7 7 5 6 5 5 6 7 8
3 3 4 4 5 5 5 5 6 6 7 8 9 11 11 9 8 8 9 12 16 15 13 17 23 23 18 16 15 12 7 6 7 7 7 6 5 4 5 4 5 5 5
3 4 4 5 6 6 6 6 7 7 9 10 9 10 11 13 13 20 17 11 9 12 14 10 8 7 6 6 7 7 6 6 7 6 6 7 6 6 5 4 4 4 4
4 5 4 5 5 5 7 8 12 14 18 20 21 20 16 21 26 27 26 26 26 24 17 10 8 7 8 8 8 7 6 7 7 7 7 7 7 6 6 5 4 4 5
5 5 5 5 6 6 7 8 10 12 16 19 21 22 22 25 26 26 26 26 24 22 12 8 8 8 8 8 8 8 8 7 7 7 7 7 7 6 6 5 5 4 5
5 7 6 6 6 6 7 8 9 11 13 10 13 20 22 24 25 25 25 21 13 11 7 9 9 9 9 8 8 8 8 7 7 7 7 7 6 6 6 6 5 5 5
5 5 5 6 6 7 8 8 9 11 12 13 11 13 19 21 23 23 21 11 10 10 9 9 9 9 9 8 8 8 8 8 8 7 7 7 6 6 6 6 6 8 7
5 10 10 7 7 7 8 9 10 11 12 12 12 12 11 13 12 12 9 8 10 10 10 10 9 9 9 8 8 8 8 9 8 8 7 7 6 6 7 7 6 6 5
5 8 13 10 8 8 9 10 11 11 12 13 13 15 20 14 12 11 10 9 9 10 10 10 10 9 8 7 8 9 10 9 8 8 7 7 7 6 6 6 6 6 6
6 7 7 8 9 9 10 10 10 11 13 14 13 14 22 14 12 12 11 11 9 9 9 9 9 8 8 8 9 10 10 10 9 8 7 7 7 7 7 7 6 6 6
7 8 9 9 9 14 14 10 11 12 13 14 14 14 13 12 13 13 12 11 9 9 9 9 10 9 8 9 9 10 10 10 9 8 8 8 7 7 7 7 8 7 7
8 9 10 11 11 11 12 12 12 13 13 14 14 13 13 12 12 13 12 11 11 10 9 9 10 12 13 11 10 9 9 10 10 9 11 10 9 8 8 8 8 9 8
8 9 11 11 11 12 13 13 13 13 14 14 14 14 14 13 13 13 12 11 12 12 12 12 10 11 13 15 13 12 17 21 20 14 10 10 11 10 10 9 9 9 9
9 10 11 11 11 12 12 13 14 14 14 14 14 14 14 14 14 13 12 12 12 12 12 11 12 13 14 14 15 19 23 23 23 23 14 10 11 10 10 10 11 10 10
Wind_Direction
166 161 156 161 160 159 169 183 189 198 209 230 248 263 273 278 277 274 272 274 271 273 271 266 264 263 261 259 253 252 252 255 277 285 266 267 268 275 285 288 289 288 288
167 162 164 163 162 170 186 198 199 214 226 237 250 263 270 272 272 269 274 276 270 272 271 269 269 270 262 260 258 256 258 253 267 284 286 276 267 269 274 278 285 287 284
163 163 166 171 176 188 199 207 211 222 241 250 254 262 268 271 272 268 265 268 265 263 265 265 267 266 268 265 260 262 264 267 263 275 285 281 274 273 276 277 276 278 283
165 168 176 185 189 196 204 212 222 229 243 255 258 262 267 270 271 270 268 265 264 263 261 259 260 259 263 266 269 264 264 266 267 272 282 285 279 270 269 279 286 276 278
168 176 187 187 187 194 208 222 232 240 248 255 265 271 272 273 269 266 262 260 260 264 263 258 259 267 273 276 279 272 266 270 275 279 284 286 282 278 275 277 287 288 278
172 181 180 180 188 203 218 228 241 253 260 263 265 269 275 278 287 292 292 274 265 265 269 267 265 274 281 286 288 290 288 284 282 280 283 283 284 279 280 282 286 289 289
172 176 179 183 197 215 224 234 248 257 262 268 268 268 270 277 291 295 295 293 275 269 269 272 278 279 288 279 285 288 285 283 282 281 281 282 282 279 279 281 279 279 281
169 177 182 188 206 222 233 245 253 255 259 264 268 269 271 280 293 298 299 294 278 271 267 266 270 273 273 280 272 270 265 267 271 274 269 271 272 273 269 274 282 285 279
174 185 192 196 210 226 241 251 255 258 263 263 265 269 273 282 293 298 298 285 277 273 269 267 272 270 279 287 287 281 278 272 278 279 278 280 284 290 292 292 291 293 293
186 193 196 199 212 230 243 254 257 257 264 271 272 269 270 276 288 296 296 285 281 280 274 267 278 284 288 291 288 281 282 282 276 276 279 283 286 289 293 288 281 284 289
177 183 198 213 225 237 248 255 265 270 275 275 277 276 271 276 287 293 295 291 279 283 283 277 271 288 291 292 291 285 284 289 284 276 273 272 272 269 271 270 261 260 274
166 189 219 234 243 249 253 267 269 270 277 280 282 284 273 271 283 289 293 293 292 289 287 282 279 290 292 293 296 292 294 301 292 280 277 275 271 269 268 269 265 258 255
173 215 239 252 255 253 254 265 272 268 272 281 284 288 289 275 276 289 294 295 294 292 284 288 292 295 298 298 295 295 298 296 281 277 276 274 262 260 268 276 278 275 271
207 239 251 258 266 263 258 257 262 267 272 279 283 287 289 287 276 273 273 281 286 287 286 287 291 292 292 291 293 295 286 270 272 271 273 271 266 265 267 270 281 293 295
231 249 256 256 260 267 264 256 263 253 259 274 278 278 287 291 288 293 295 291 285 281 291 286 282 282 277 276 278 275 269 271 279 269 270 273 273 269 272 269 269 278 279
242 253 255 259 263 266 275 283 273 273 282 283 284 285 285 287 295 299 300 299 300 300 300 292 288 285 286 286 285 283 276 272 270 268 268 267 268 267 272 271 265 267 275
240 255 259 261 266 271 276 284 293 294 286 286 288 290 290 292 296 299 300 300 300 303 298 287 283 283 282 279 277 277 278 273 266 264 264 263 261 260 262 267 265 265 269
248 263 268 260 263 268 273 276 282 291 299 294 290 291 293 294 297 299 300 302 299 296 279 279 278 278 279 277 275 276 277 275 266 262 260 258 254 256 259 260 259 258 266
258 262 263 263 264 268 272 276 279 282 287 292 294 293 295 297 297 296 297 290 287 286 282 279 276 276 276 275 274 274 273 275 270 263 259 253 248 247 252 253 254 265 269
263 279 286 278 272 274 275 278 282 284 287 290 291 293 297 296 292 289 282 274 277 280 282 281 278 273 272 272 273 273 272 272 268 261 257 253 247 243 247 248 248 250 251
267 279 289 287 277 278 279 280 281 283 286 288 288 290 294 294 291 289 285 280 277 278 278 279 278 274 270 270 272 270 269 271 267 260 255 252 247 245 244 244 243 243 247
268 273 275 276 278 279 281 279 280 282 284 286 288 291 294 291 286 284 283 282 276 273 273 275 275 271 267 268 270 271 272 271 267 259 256 252 247 246 246 244 241 239 242
271 277 281 280 280 286 289 283 282 283 284 285 288 290 290 286 284 282 282 282 277 275 274 272 272 271 266 263 263 264 268 270 268 261 258 256 251 246 243 241 237 237 238
273 277 281 284 285 284 285 286 285 285 286 286 287 287 286 285 283 282 281 281 279 277 273 270 270 269 266 268 268 263 261 264 265 262 253 252 250 248 243 240 237 236 236
276 280 283 285 287 288 288 289 288 288 287 288 288 287 286 286 285 284 283 280 277 277 273 271 271 270 268 266 266 266 269 273 274 270 258 249 247 242 239 238 237 236 233
281 284 287 287 287 287 288 289 289 288 287 287 287 286 285 285 284 284 282 280 278 278 276 274 268 264 265 267 267 270 274 275 275 273 267 257 248 244 237 237 233 233 233
Height
1504 1506 1508 1509 1510 1511 1511 1511 1510 1510 1509 1507 1506 1504 1502 1499 1497 1494 1491 1489 1486 1483 1480 1477 1474 1471 1467 1464 1461 1458 1455 1450 1441 1433 1433 1431 1428 1426 1422 1420 1416 1413 1409
1500 1502 1504 1506 1506 1507 1507 1507 1506 1505 1504 1503 1501 1499 1496 1494 1491 1488 1485 1482 1479 1476 1473 1470 1466 1463 1459 1456 1453 1450 1446 1443 1437 1428 1424 1423 1421 1418 1415 1412 1409 1406 1402
1497 1499 1500 1501 1502 1503 1503 1502 1502 1501 1499 1498 1496 1493 1491 1488 1485 1482 1479 1476 1472 1469 1466 1462 1459 1455 1451 1448 1445 1441 1438 1434 1430 1424 1417 1415 1413 1411 1407 1404 1401 1398 1395
1492 1494 1496 1497 1498 1498 1498 1498 1497 1496 1494 1492 1490 1488 1485 1482 1479 1476 1472 1468 1465 1462 1458 1455 1451 1447 1443 1440 1436 1433 1430 1426 1422 1418 1412 1408 1406 1404 1401 1397 1393 1390 1387
1487 1490 1491 1493 1494 1494 1494 1493 1492 1490 1488 1486 1484 1482 1479 1476 1472 1468 1464 1460 1457 1453 1450 1447 1443 1439 1435 1432 1429 1426 1423 1419 1415 1411 1406 1402 1399 1397 1394 1391 1386 1382 1378
1482 1485 1487 1488 1489 1489 1489 1488 1486 1485 1483 1480 1478 1475 1472 1469 1466 1462 1458 1453 1449 1445 1441 1438 1434 1431 1428 1424 1422 1419 1416 1412 1408 1404 1400 1396 1392 1390 1387 1384 1380 1375 1370
1478 1480 1482 1483 1483 1484 1483 1482 1480 1478 1476 1474 1471 1468 1465 1462 1459 1455 1450 1446 1441 1437 1433 1429 1425 1422 1419 1416 1412 1409 1406 1404 1402 1399 1393 1389 1386 1384 1381 1376 1373 1369 1364
1473 1475 1477 1478 1478 1478 1477 1476 1474 1472 1470 1467 1464 1461 1458 1455 1451 1447 1442 1437 1432 1428 1425 1421 1417 1413 1410 1407 1402 1399 1396 1394 1393 1390 1386 1382 1379 1376 1374 1370 1366 1362 1358
1469 1471 1472 1473 1473 1472 1471 1470 1468 1465 1463 1460 1457 1454 1450 1446 1443 1439 1434 1428 1423 1419 1416 1413 1409 1405 1402 1399 1396 1391 1387 1385 1384 1381 1378 1375 1373 1370 1368 1364 1360 1356 1351
1465 1467 1468 1468 1467 1466 1465 1463 1461 1458 1455 1452 1449 1446 1442 1438 1434 1430 1426 1420 1414 1409 1406 1403 1401 1398 1394 1392 1389 1384 1380 1377 1375 1371 1369 1367 1364 1362 1360 1357 1354 1350 1346
1462 1462 1463 1463 1462 1461 1459 1457 1454 1451 1448 1444 1441 1437 1434 1430 1425 1422 1417 1412 1407 1402 1397 1394 1392 1389 1386 1384 1381 1377 1373 1370 1367 1364 1361 1358 1356 1354 1352 1350 1347 1344 1341
1457 1458 1458 1457 1456 1455 1452 1450 1448 1444 1440 1436 1431 1427 1424 1421 1417 1412 1409 1405 1401 1396 1390 1387 1383 1381 1378 1376 1373 1369 1367 1364 1360 1356 1353 1351 1349 1347 1345 1342 1340 1338 1336
1453 1453 1452 1451 1450 1448 1446 1443 1440 1437 1432 1428 1423 1418 1413 1411 1408 1404 1400 1396 1392 1389 1383 1379 1376 1373 1370 1367 1364 1361 1359 1355 1352 1349 1346 1344 1342 1340 1338 1336 1334 1332 1330
1448 1448 1447 1445 1443 1442 1439 1436 1432 1429 1424 1420 1415 1410 1405 1400 1398 1394 1390 1386 1383 1379 1375 1371 1368 1364 1361 1358 1355 1353 1350 1348 1345 1342 1339 1337 1336 1334 1332 1330 1328 1326 1324
1443 1442 1440 1439 1436 1434 1431 1428 1424 1421 1418 1413 1408 1403 1397 1392 1389 1387 1384 1379 1375 1372 1367 1363 1359 1355 1352 1349 1346 1344 1342 1340 1338 1335 1333 1331 1330 1328 1327 1325 1324 1322 1320
1437 1435 1434 1431 1429 1426 1422 1419 1416 1413 1409 1405 1401 1397 1390 1386 1381 1378 1375 1371 1367 1364 1360 1355 1351 1348 1345 1342 1339 1336 1334 1333 1331 1329 1327 1325 1324 1323 1321 1320 1319 1317 1316
1431 1429 1427 1424 1421 1418 1414 1410 1405 1401 1399 1396 1392 1388 1383 1378 1374 1370 1366 1362 1359 1356 1351 1347 1343 1340 1337 1334 1332 1329 1327 1326 1324 1322 1321 1319 1318 1317 1316 1315 1314 1313 1311
1424 1422 1420 1417 1414 1410 1407 1403 1398 1392 1387 1382 1381 1378 1374 1369 1365 1361 1357 1353 1348 1346 1343 1339 1335 1332 1330 1327 1325 1323 1321 1319 1317 1316 1315 1314 1313 1312 1311 1310 1309 1308 1307
1418 1415 1412 1409 1406 1403 1399 1394 1390 1385 1379 1374 1369 1366 1364 1360 1356 1352 1349 1345 1340 1337 1334 1330 1327 1325 1322 1320 1318 1316 1314 1312 1310 1309 1308 1307 1307 1306 1305 1304 1304 1303 1302
1411 1408 1405 1401 1398 1394 1390 1386 1381 1376 1371 1366 1362 1357 1354 1350 1345 1342 1339 1336 1332 1328 1325 1322 1319 1317 1314 1312 1310 1308 1306 1305 1303 1302 1301 1301 1300 1300 1299 1298 1298 1298 1297
1403 1400 1398 1394 1390 1386 1382 1377 1373 1368 1363 1358 1353 1350 1347 1342 1337 1333 1330 1327 1323 1320 1317 1314 1311 1308 1306 1304 1302 1300 1299 1297 1296 1295 1295 1294 1294 1293 1293 1293 1292 1292 1292
1396 1392 1389 1385 1381 1377 1373 1368 1364 1359 1354 1349 1344 1340 1337 1333 1328 1324 1320 1317 1314 1311 1308 1305 1302 1300 1298 1296 1294 1292 1291 1290 1289 1288 1288 1288 1287 1287 1287 1286 1286 1286 1286
1388 1384 1380 1376 1372 1368 1363 1359 1355 1350 1345 1340 1335 1331 1327 1323 1319 1315 1311 1308 1305 1302 1299 1296 1293 1291 1289 1287 1286 1284 1283 1282 1281 1281 1281 1280 1280 1280 1280 1280 1280 1280 1280
1380 1376 1372 1367 1363 1359 1354 1349 1345 1340 1335 1331 1326 1321 1317 1313 1309 1305 1301 1298 1295 1292 1289 1287 1284 1281 1279 1278 1276 1275 1274 1274 1273 1273 1273 1273 1272 1272 1273 1273 1273 1273 1274
1372 1367 1363 1358 1354 1349 1344 1339 1335 1330 1326 1321 1316 1312 1307 1303 1299 1295 1291 1288 1285 1282 1279 1277 1274 1272 1270 1268 1267 1266 1265 1265 1264 1265 1265 1265 1264 1265 1265 1265 1266 1266 1267
1363 1359 1354 1349 1344 1340 1335 1329 1324 1320 1315 1311 1306 1302 1297 1293 1289 1285 1281 1278 1275 1272 1269 1266 1264 1262 1260 1258 1257 1256 1255 1255 1255 1255 1256 1256 1256 1256 1257 1257 1258 1259 1260